Temperature
15 15 15 16 16 17 19 21 22 22 22 22 22 22 22 21 20 18 17 17 16 16 16 16 16 16 16 16 16 15 15 15 16 16 16 16 16 16 15 15 15 15 15 15 15 15 15 15 15
15 15 15 16 16 17 19 21 21 22 22 21 21 21 21 20 18 17 16 16 16 15 15 16 16 16 16 16 15 15 15 15 15 16 16 16 16 16 15 15 15 15 15 15 15 15 15 15 15
14 15 16 16 17 18 20 21 21 21 21 20 20 21 20 19 17 16 16 16 15 15 15 15 15 15 15 15 15 15 15 15 15 15 15 16 16 15 15 15 15 15 15 15 15 15 15 15 15
14 15 16 16 17 19 20 21 20 20 20 20 20 19 18 18 17 16 16 15 15 14 15 15 15 15 15 15 15 15 15 15 15 15 15 15 15 15 15 15 15 15 15 15 15 15 15 15 15
14 15 16 16 18 19 20 21 20 20 20 20 20 19 17 16 16 15 15 15 14 14 14 14 15 15 15 15 15 15 15 15 15 15 15 15 15 15 15 15 15 15 15 15 15 15 15 15 15
15 16 16 16 18 19 20 20 20 20 20 20 19 18 16 16 15 15 15 14 14 14 14 14 14 14 14 15 15 15 15 15 15 15 15 15 15 15 15 15 15 15 15 15 15 15 15 15 15
15 15 16 17 18 19 19 19 19 19 19 19 18 17 16 15 15 14 14 14 13 13 14 14 14 14 14 14 14 14 15 15 15 15 14 15 15 15 15 15 15 15 15 15 15 15 15 15 15
14 15 16 17 17 18 19 19 19 18 18 18 18 17 15 15 14 14 13 13 13 13 13 13 13 14 14 14 14 14 14 14 14 14 14 14 14 14 14 14 14 14 14 14 14 14 14 14 14
14 14 15 16 17 17 18 18 18 17 17 17 17 16 15 14 14 13 13 13 13 13 12 13 13 13 13 13 14 14 14 14 14 14 14 14 14 14 14 14 14 14 14 14 14 14 14 14 14
14 13 15 16 17 17 17 17 17 16 16 16 16 15 14 14 13 13 13 13 12 12 12 12 13 13 13 13 13 13 14 14 14 14 14 14 14 14 14 13 13 14 14 14 14 14 14 14 14
14 13 15 16 16 16 16 16 16 16 15 15 15 14 13 13 13 13 12 12 12 12 12 12 12 13 13 13 13 13 13 13 13 13 13 13 13 13 13 13 13 13 13 13 13 13 13 13 13
14 14 15 15 15 15 15 15 15 15 15 16 15 14 13 13 12 12 12 12 12 12 12 12 12 12 13 13 13 13 13 13 13 13 13 13 13 13 13 13 13 13 13 13 13 13 13 13 13
14 14 15 14 14 14 15 15 15 15 15 15 14 14 13 13 12 12 12 12 12 11 11 12 12 12 12 12 12 12 13 13 13 13 13 13 13 13 13 13 13 13 13 13 13 12 12 12 12
14 14 14 14 14 14 14 14 14 15 15 14 14 13 13 13 12 12 12 11 11 11 11 11 11 12 12 12 12 12 12 13 13 13 13 13 13 13 12 12 12 12 12 12 12 12 12 12 12
13 13 13 13 14 14 14 13 14 15 15 14 14 13 13 12 12 12 12 12 11 11 11 11 11 12 12 12 12 12 12 12 12 12 12 12 12 12 12 12 12 12 12 12 12 12 12 12 12
13 12 12 13 14 14 12 11 14 15 15 14 14 13 13 12 12 12 12 11 11 11 11 11 11 11 11 12 12 12 12 12 12 12 12 12 12 12 12 12 12 12 12 12 12 11 11 11 11
11 11 12 13 14 14 12 12 14 15 15 14 14 13 13 12 12 12 11 11 11 11 11 11 11 11 11 11 11 11 11 11 11 12 12 12 12 12 12 12 11 11 11 11 11 11 11 11 11
11 12 13 13 14 13 12 12 13 15 14 14 14 14 13 12 12 12 11 11 11 11 11 11 11 11 11 11 11 11 11 11 11 11 11 11 11 11 11 11 11 11 11 11 11 11 11 11 11
12 12 12 14 14 13 12 13 13 14 14 14 14 13 13 13 12 11 11 11 11 10 10 11 11 11 11 11 11 11 11 11 11 11 11 11 11 11 11 11 11 11 11 11 11 10 10 10 10
12 11 12 13 13 13 12 13 13 13 13 14 14 13 13 12 12 11 11 11 10 10 10 10 10 10 10 11 11 11 11 11 11 11 11 11 11 11 11 11 11 11 11 10 10 10 10 10 10
12 11 11 12 12 12 12 11 12 14 14 14 14 13 13 12 12 11 10 10 10 10 10 10 10 10 10 10 10 10 10 10 10 10 10 10 10 10 10 10 10 10 10 10 10 10 10 10 9
11 12 12 11 10 10 11 9 12 13 13 13 13 13 13 12 12 11 10 10 10 10 10 10 10 10 10 10 10 10 10 10 10 10 10 10 10 10 10 10 10 10 10 10 10 10 10 9 9
11 12 11 11 10 9 11 10 11 13 12 12 13 13 13 12 12 11 10 10 10 10 10 10 10 10 10 10 10 10 9 10 9 9 9 9 9 9 9 9 9 9 9 9 9 9 9 9 9
11 11 10 10 9 8 10 10 11 12 13 13 13 13 12 12 11 11 10 10 10 9 10 10 10 9 10 10 9 9 9 9 9 9 9 9 9 9 9 9 9 9 9 9 9 9 9 8 8
10 8 8 8 8 9 11 11 11 14 14 14 13 13 12 12 11 10 10 10 9 9 9 9 9 9 9 9 9 9 9 9 9 9 9 9 9 8 8 8 8 8 8 8 8 8 8 8 8
9 9 8 8 9 10 11 10 12 13 13 13 13 13 12 11 11 10 10 10 9 9 9 9 9 9 9 9 9 8 8 8 8 8 8 8 8 8 8 8 8 8 8 8 8 8 8 8 8
9 8 10 9 9 9 10 12 12 12 12 12 12 12 12 11 10 10 10 9 9 9 9 9 9 9 9 8 8 8 8 8 8 8 8 8 8 8 8 8 8 7 7 7 7 7 7 7 7
9 9 8 8 8 9 11 11 11 11 11 11 11 11 11 11 10 10 9 9 9 9 9 9 8 8 8 8 8 8 8 8 8 7 7 7 7 7 7 7 7 7 7 7 7 7 7 7 7
7 8 8 8 9 9 10 11 12 11 11 11 10 11 11 10 10 9 9 9 9 9 8 8 8 8 8 7 7 7 7 7 7 7 7 7 7 7 7 7 7 6 7 6 6 6 6 6 6
8 8 8 7 8 9 9 10 11 11 11 10 10 10 10 9 9 9 8 8 8 8 7 7 7 7 7 7 7 7 7 7 7 7 6 6 6 6 6 6 6 6 6 6 6 6 6 5 5
Wind_Speed
12 12 7 2 3 6 9 6 4 2 1 4 6 4 5 4 3 6 5 9 10 9 10 10 10 9 8 8 8 8 9 9 9 9 9 10 9 9 9 9 9 9 10 10 10 11 10 10 11
12 7 4 3 4 7 7 6 5 1 3 4 4 2 2 3 4 6 6 8 9 8 9 9 9 9 8 8 7 7 8 9 9 9 9 10 10 9 9 9 9 9 10 10 10 10 10 10 10
10 6 4 4 6 7 4 1 2 2 5 2 0 2 2 3 5 4 6 8 8 8 9 9 9 8 8 8 8 7 8 9 9 9 9 10 10 10 10 9 9 9 10 10 10 10 10 9 9
5 3 4 6 12 8 5 3 3 2 2 3 2 1 2 3 4 5 6 7 7 7 9 9 8 8 8 8 8 7 7 9 9 9 9 9 10 10 10 9 9 10 10 10 10 10 9 9 9
4 4 6 8 12 7 4 2 1 2 3 3 3 2 1 3 6 6 5 6 7 6 8 8 7 8 8 8 8 8 8 9 10 10 9 9 9 10 10 10 10 10 10 9 9 9 9 9 8
4 4 6 10 10 6 5 3 3 5 2 3 3 2 1 4 5 4 4 4 7 7 7 7 7 8 8 8 9 9 8 9 10 10 10 9 9 9 10 10 10 10 10 9 9 9 8 8 7
4 5 8 9 8 7 5 3 4 4 5 3 2 2 3 4 5 4 4 4 6 6 6 6 7 7 8 9 9 9 9 8 9 10 10 10 9 9 10 10 10 10 9 8 8 8 8 7 6
4 4 8 9 9 8 3 2 3 5 5 2 1 2 2 4 5 4 4 4 5 5 5 5 6 7 8 9 10 9 9 8 8 10 10 10 10 10 10 9 9 9 9 8 8 7 7 6 5
4 5 7 7 7 5 2 3 3 2 3 3 1 1 1 4 4 4 4 3 4 4 4 4 4 6 7 9 9 9 9 9 9 9 10 9 9 9 9 9 9 9 9 8 7 7 6 6 4
4 6 7 5 5 5 4 4 2 2 4 4 2 1 3 3 5 5 5 5 4 4 4 4 4 4 6 7 9 8 8 9 8 8 9 7 8 8 9 9 9 8 8 7 7 6 6 4 3
5 6 6 7 6 6 6 5 3 4 6 6 5 5 4 3 4 5 5 5 5 4 4 4 4 4 4 4 6 6 6 6 7 7 8 8 8 8 8 8 8 7 7 5 5 5 4 3 3
7 8 8 7 6 6 6 5 6 8 7 4 5 6 6 5 6 6 5 5 5 5 4 4 4 4 4 4 4 5 5 5 5 5 7 6 5 5 5 5 6 5 4 4 3 2 2 3 3
11 10 9 8 8 8 8 9 8 9 7 4 5 6 7 6 5 5 5 5 5 5 4 4 5 5 4 4 3 5 5 5 6 5 6 7 5 5 5 5 5 5 4 4 2 2 3 4 4
6 8 10 9 9 8 9 11 9 9 7 6 7 8 8 7 6 5 5 5 5 5 5 4 4 4 4 3 2 3 5 6 6 5 6 7 6 6 5 4 4 4 5 4 3 3 3 3 4
8 9 10 10 10 7 6 10 11 10 8 9 9 9 9 8 7 7 6 6 5 6 5 5 5 5 4 4 3 4 6 7 6 5 7 7 8 6 5 4 3 4 5 5 4 4 4 3 4
7 8 8 9 10 7 6 11 9 8 9 9 9 8 8 8 7 6 6 6 6 6 6 6 5 6 5 4 4 4 6 6 6 6 6 7 7 7 5 4 3 4 5 4 3 3 3 3 3
7 8 9 7 9 7 9 9 7 5 7 9 9 8 8 7 6 6 5 7 7 7 7 6 6 6 5 5 5 4 5 6 6 6 6 7 7 7 6 4 4 5 4 3 2 2 3 3 3
7 8 8 9 7 9 10 10 6 5 7 8 8 8 8 8 7 6 6 6 7 7 7 7 6 6 6 5 4 4 4 4 5 5 6 7 6 6 6 4 4 4 3 2 2 3 3 3 2
9 10 10 8 4 7 11 11 9 8 7 7 7 8 8 7 6 6 6 6 6 6 7 7 7 6 6 5 5 4 4 4 3 4 7 8 7 6 5 4 3 3 3 3 3 3 3 2 2
14 13 11 7 4 6 9 12 10 10 9 9 8 8 8 7 7 6 6 6 7 7 7 8 8 8 7 5 4 4 4 3 4 4 6 7 7 6 5 4 3 3 3 3 3 3 2 1 1
15 13 10 8 5 6 7 9 10 10 9 7 8 8 8 9 8 8 7 7 7 7 8 8 9 8 7 7 5 5 4 4 3 4 3 5 7 6 5 4 3 2 2 3 3 3 3 2 1
12 8 8 8 5 5 6 6 7 8 9 9 9 9 9 9 9 8 8 8 8 7 7 7 8 9 8 8 7 7 5 5 4 4 4 4 6 6 5 4 4 3 2 3 2 2 2 2 1
8 4 7 7 7 7 7 6 6 7 8 10 10 9 9 9 9 8 7 8 7 7 7 7 7 8 8 8 8 7 5 4 4 5 5 5 4 5 5 5 4 3 2 2 2 2 2 2 2
4 2 4 4 3 7 10 8 6 6 10 10 10 9 9 8 8 9 8 8 7 7 7 7 8 8 8 8 8 7 7 6 7 6 6 5 4 4 4 4 4 3 2 2 2 2 2 2 2
7 5 3 4 5 8 7 7 7 4 6 8 10 10 9 8 8 8 8 8 8 8 8 8 9 8 7 8 8 8 7 7 7 6 6 6 4 3 4 4 3 3 3 3 2 2 2 2 2
11 9 6 5 5 4 6 8 5 3 3 4 6 9 9 9 8 8 7 8 8 9 9 8 9 8 8 8 7 7 7 6 4 5 5 5 4 4 4 4 4 4 4 3 3 2 2 2 2
8 9 5 3 4 4 5 5 3 4 4 5 6 8 9 9 8 8 7 7 8 8 8 8 9 9 9 8 7 7 7 6 5 5 4 4 4 4 5 4 3 3 3 3 3 2 2 2 2
5 5 4 5 4 5 6 8 6 7 7 7 7 7 8 8 7 7 7 7 7 7 7 7 8 9 9 8 8 7 7 6 6 5 5 5 4 4 5 4 4 3 3 3 2 2 2 3 2
7 6 6 5 5 4 4 3 1 7 8 9 7 7 7 8 7 6 6 6 6 6 7 7 7 7 7 8 7 7 7 6 6 6 6 5 5 5 5 5 4 4 4 3 3 3 3 3 3
7 7 7 5 6 5 3 3 4 4 6 7 7 7 6 7 7 6 6 6 6 6 6 6 7 7 7 7 7 7 6 6 6 5 5 5 5 5 5 5 5 5 4 4 4 4 4 3 3
Wind_Direction
293 271 255 245 241 233 238 232 240 258 12 23 20 9 353 359 29 106 117 86 93 103 115 123 121 123 124 121 120 125 130 132 135 135 131 128 125 120 114 110 109 106 104 101 100 100 103 101 99
290 277 257 231 236 235 235 219 227 203 75 51 23 354 333 47 69 95 94 88 97 103 111 119 121 122 125 125 124 127 132 133 132 137 134 131 129 124 118 114 111 106 103 101 99 96 102 104 102
275 266 248 229 232 240 252 191 160 120 90 96 31 326 351 79 82 88 95 99 100 100 103 111 122 124 125 126 128 130 133 137 133 129 133 133 132 126 122 118 112 106 105 105 102 98 99 103 105
265 230 241 243 243 243 261 288 40 105 129 165 176 154 55 59 76 89 98 100 100 99 102 114 126 128 128 130 134 136 137 140 136 130 126 132 134 129 125 119 112 109 108 106 105 101 100 104 104
251 243 234 239 244 244 258 284 359 251 174 195 204 184 108 64 88 100 104 108 109 104 106 122 129 131 132 134 139 142 143 142 139 135 129 122 129 130 126 118 113 112 108 108 109 106 104 104 107
241 236 241 241 244 235 235 259 257 253 232 211 218 226 173 131 109 110 108 110 108 110 113 126 127 131 139 140 138 137 139 143 142 136 130 125 119 120 123 119 116 115 112 108 110 109 106 106 107
255 248 250 260 261 242 226 222 236 255 253 224 225 231 165 130 106 105 107 109 109 113 120 125 133 133 137 138 138 138 132 131 143 140 134 129 125 120 114 116 119 117 114 111 110 111 110 106 105
278 275 253 252 256 255 235 221 239 259 269 268 222 212 178 138 120 127 131 128 119 122 128 131 135 136 135 135 137 139 135 130 136 143 140 134 130 125 122 118 116 118 116 113 112 112 113 111 112
271 252 247 250 258 265 267 252 247 288 272 266 266 339 116 130 138 152 151 142 134 132 131 128 134 135 135 140 141 140 138 138 138 147 148 144 139 130 122 123 119 115 115 116 117 117 114 116 123
226 241 244 267 293 293 278 259 236 248 244 248 245 68 122 160 171 174 172 169 158 150 148 143 136 132 137 143 144 146 149 151 150 151 155 149 130 129 128 126 124 119 116 115 116 117 117 114 119
221 240 259 269 294 301 290 275 243 237 245 228 208 178 162 183 186 185 178 173 170 158 156 147 143 134 134 142 150 146 142 144 142 145 153 140 130 128 128 127 124 122 118 110 113 119 118 110 110
239 242 257 270 290 282 276 272 259 242 250 239 196 179 183 198 205 195 186 176 165 161 159 156 149 142 138 139 153 144 141 136 130 139 148 132 125 122 121 118 120 120 115 103 104 104 107 91 87
236 248 254 261 268 266 269 263 258 253 254 254 202 189 195 202 212 202 189 173 164 168 163 159 153 150 146 135 147 148 142 137 132 131 134 129 125 127 124 115 114 112 111 105 81 69 70 69 71
253 252 252 251 255 254 259 265 252 246 225 222 204 199 199 203 204 207 194 179 171 169 163 152 154 144 136 135 135 134 131 128 128 130 134 131 121 117 118 116 112 108 108 105 90 81 70 63 65
263 260 253 242 240 238 251 261 243 241 218 218 208 200 201 201 195 203 199 177 173 167 159 159 154 138 133 131 126 122 124 126 125 124 129 125 120 116 113 115 114 104 107 99 84 82 74 67 61
240 242 245 228 218 214 213 254 249 224 214 213 208 202 199 198 193 195 188 174 170 163 156 158 153 142 139 133 121 122 126 124 122 123 121 116 116 120 113 113 108 104 99 89 86 82 81 70 65
221 234 240 231 204 204 213 252 255 210 213 209 203 200 195 195 192 185 179 176 171 163 156 154 144 142 137 130 117 117 115 116 122 121 117 115 112 117 113 110 112 111 98 91 96 95 96 90 71
223 233 244 237 206 208 220 243 250 223 217 212 201 193 191 193 197 179 172 173 165 159 155 153 144 144 136 126 115 110 107 109 113 119 122 118 117 115 109 110 109 108 105 97 99 108 101 104 100
253 254 255 258 232 225 233 244 245 228 224 217 204 193 193 187 184 169 167 163 157 157 154 152 149 147 139 138 137 135 136 127 120 122 122 121 119 115 115 115 108 105 114 118 107 109 107 90 92
244 256 264 271 238 234 248 254 247 228 218 208 202 193 184 175 174 172 165 161 160 162 160 157 154 151 149 146 140 136 135 127 122 117 115 121 120 117 120 118 118 118 122 117 110 111 111 108 101
236 239 252 264 285 269 268 266 242 229 215 204 199 185 177 177 178 177 171 161 158 164 165 163 157 155 150 141 130 122 112 107 107 117 127 126 126 122 115 115 118 117 123 132 124 123 123 145 154
238 232 248 259 263 254 226 262 245 215 198 203 200 189 181 180 174 173 168 162 163 167 161 156 157 155 149 143 141 143 149 148 151 143 143 132 128 125 121 118 116 120 115 129 137 125 132 134 156
236 240 244 246 247 262 241 249 260 208 201 205 196 188 178 174 170 167 167 162 158 157 158 156 151 151 151 148 147 147 150 141 134 134 141 137 129 126 127 125 118 111 108 121 129 129 130 140 146
221 221 241 241 239 248 227 223 259 212 205 195 186 182 175 169 167 163 162 154 151 152 154 154 154 155 155 150 150 150 150 145 142 148 153 148 139 127 132 132 125 118 113 119 128 127 133 140 137
189 169 186 207 218 236 210 213 242 217 182 185 179 175 170 168 166 161 159 158 159 157 159 158 156 155 156 154 153 152 149 147 152 157 158 152 148 149 156 144 143 140 134 132 129 124 137 144 145
196 189 188 202 216 230 203 216 231 162 127 133 153 157 159 159 158 160 160 159 160 162 164 164 164 159 156 157 151 149 146 149 152 155 158 155 157 158 151 144 144 141 140 142 137 136 145 138 153
193 210 228 262 272 247 222 213 209 134 133 137 146 148 155 155 155 156 155 154 156 162 166 168 164 158 158 159 148 147 147 147 150 156 152 148 148 146 142 145 147 144 143 143 145 151 160 162 173
224 202 196 209 219 238 225 212 206 179 181 168 163 155 150 144 145 147 149 151 153 157 156 156 157 157 156 157 154 155 155 153 151 151 148 147 147 146 149 156 160 158 156 153 149 158 174 169 179
195 206 209 207 232 223 237 234 186 170 172 167 160 148 145 145 146 142 142 141 143 143 146 149 151 148 150 153 154 154 156 155 152 154 154 154 155 159 164 169 171 170 171 167 165 176 184 185 192
206 202 195 196 230 231 253 265 18 80 112 128 132 126 125 128 131 133 134 134 135 140 143 147 147 149 152 152 151 151 152 148 147 154 157 156 160 168 171 172 176 178 180 181 182 190 193 191 196
Height
1501 1503 1505 1508 1510 1509 1502 1490 1484 1484 1485 1488 1489 1490 1492 1495 1499 1509 1508 1506 1506 1506 1508 1510 1511 1513 1515 1516 1518 1519 1521 1522 1524 1525 1527 1528 1529 1530 1532 1533 1534 1535 1536 1537 1538 1539 1540 1541 1542
1501 1504 1507 1507 1508 1508 1496 1487 1485 1485 1487 1490 1492 1493 1494 1497 1500 1503 1504 1505 1505 1506 1508 1509 1511 1513 1514 1516 1517 1519 1521 1522 1524 1525 1526 1528 1529 1531 1532 1533 1534 1535 1536 1537 1539 1540 1541 1542 1543
1501 1504 1506 1503 1501 1498 1491 1483 1484 1485 1488 1491 1493 1495 1496 1499 1501 1502 1503 1504 1505 1506 1507 1509 1511 1512 1513 1515 1517 1518 1520 1522 1523 1525 1526 1528 1529 1531 1532 1533 1535 1536 1537 1538 1539 1540 1542 1543 1544
1503 1505 1504 1502 1496 1488 1486 1484 1484 1486 1489 1491 1494 1496 1497 1500 1500 1502 1502 1504 1505 1505 1506 1508 1510 1511 1513 1514 1516 1518 1519 1521 1523 1524 1526 1527 1529 1530 1532 1533 1535 1536 1537 1539 1540 1541 1542 1543 1544
1502 1503 1502 1498 1491 1485 1483 1484 1486 1488 1489 1491 1493 1494 1497 1499 1499 1500 1502 1503 1504 1504 1505 1507 1508 1510 1511 1513 1515 1517 1518 1520 1522 1524 1525 1527 1529 1530 1532 1533 1535 1536 1538 1539 1540 1541 1543 1544 1545
1502 1499 1500 1496 1487 1483 1483 1485 1487 1487 1489 1490 1492 1494 1497 1498 1498 1499 1501 1502 1503 1503 1504 1506 1507 1509 1510 1512 1513 1515 1517 1519 1521 1523 1525 1526 1527 1530 1532 1533 1535 1536 1537 1539 1540 1542 1543 1544 1545
1501 1497 1495 1489 1486 1484 1482 1484 1486 1487 1488 1490 1491 1493 1495 1496 1497 1498 1500 1501 1502 1502 1503 1504 1506 1507 1509 1511 1512 1514 1516 1518 1520 1522 1524 1526 1528 1529 1531 1533 1534 1536 1537 1539 1541 1542 1543 1544 1546
1498 1496 1491 1488 1486 1483 1482 1483 1485 1487 1488 1489 1490 1491 1493 1494 1495 1497 1498 1499 1500 1501 1502 1503 1504 1506 1507 1509 1511 1513 1515 1517 1519 1522 1524 1526 1527 1529 1531 1533 1534 1536 1538 1539 1541 1542 1543 1545 1546
1497 1498 1492 1486 1484 1482 1481 1483 1485 1486 1487 1488 1488 1489 1491 1492 1493 1495 1496 1498 1499 1500 1500 1501 1503 1504 1506 1508 1510 1512 1514 1516 1518 1521 1523 1525 1527 1528 1530 1532 1534 1535 1537 1539 1540 1542 1543 1544 1546
1495 1495 1488 1484 1482 1482 1482 1482 1484 1485 1485 1486 1487 1487 1489 1490 1491 1492 1493 1495 1496 1497 1499 1500 1501 1502 1504 1506 1508 1510 1512 1515 1517 1519 1522 1524 1526 1527 1529 1532 1533 1535 1537 1538 1540 1541 1543 1544 1545
1490 1489 1485 1484 1483 1483 1482 1482 1482 1483 1484 1483 1484 1485 1487 1488 1489 1490 1491 1492 1494 1495 1496 1498 1499 1501 1502 1504 1506 1509 1511 1513 1516 1518 1520 1523 1525 1527 1528 1530 1532 1534 1536 1538 1539 1541 1542 1543 1545
1487 1484 1484 1484 1484 1483 1482 1481 1481 1480 1480 1481 1482 1483 1484 1486 1487 1488 1489 1490 1492 1493 1494 1496 1497 1499 1500 1502 1504 1506 1509 1512 1514 1516 1519 1521 1523 1525 1527 1529 1531 1534 1535 1537 1538 1540 1541 1543 1544
1484 1483 1482 1482 1482 1482 1481 1479 1479 1477 1478 1478 1479 1480 1481 1483 1485 1486 1487 1489 1489 1491 1492 1493 1495 1496 1498 1500 1502 1505 1507 1510 1512 1515 1517 1520 1522 1524 1526 1528 1530 1533 1535 1536 1538 1539 1541 1542 1543
1481 1481 1480 1480 1480 1479 1479 1477 1477 1473 1475 1476 1476 1476 1479 1481 1482 1483 1485 1486 1487 1488 1489 1491 1493 1494 1496 1498 1500 1503 1505 1508 1511 1513 1515 1518 1520 1522 1525 1527 1530 1532 1534 1535 1537 1539 1540 1541 1542
1480 1480 1478 1477 1477 1476 1477 1475 1471 1470 1472 1472 1473 1474 1476 1478 1480 1481 1482 1482 1484 1485 1487 1489 1491 1492 1494 1496 1498 1501 1503 1506 1509 1511 1514 1517 1519 1522 1524 1527 1529 1531 1533 1534 1536 1537 1539 1540 1541
1478 1479 1478 1471 1471 1472 1478 1474 1465 1465 1466 1468 1470 1471 1473 1474 1476 1478 1479 1480 1481 1483 1484 1486 1488 1490 1492 1495 1497 1499 1501 1504 1506 1509 1512 1515 1518 1521 1523 1526 1528 1530 1532 1533 1535 1536 1537 1539 1540
1477 1477 1473 1468 1466 1467 1471 1468 1462 1461 1462 1464 1466 1468 1470 1471 1473 1474 1476 1477 1478 1480 1482 1483 1486 1488 1490 1493 1495 1498 1500 1502 1505 1508 1510 1514 1517 1520 1522 1524 1527 1529 1531 1532 1534 1535 1536 1538 1539
1474 1471 1466 1465 1462 1463 1466 1463 1459 1459 1459 1460 1462 1464 1466 1467 1469 1471 1473 1474 1475 1477 1479 1481 1484 1486 1489 1491 1493 1496 1499 1501 1504 1507 1509 1512 1515 1518 1521 1523 1526 1528 1529 1531 1532 1534 1535 1537 1538
1466 1465 1464 1460 1458 1461 1460 1458 1456 1455 1455 1456 1457 1459 1462 1464 1466 1468 1470 1472 1473 1474 1476 1479 1481 1484 1486 1488 1491 1494 1497 1500 1502 1506 1508 1511 1514 1516 1519 1522 1524 1526 1528 1529 1531 1532 1534 1535 1536
1464 1465 1463 1458 1456 1459 1458 1455 1451 1449 1450 1451 1453 1455 1458 1461 1463 1465 1467 1468 1470 1471 1474 1477 1479 1482 1484 1487 1489 1493 1495 1499 1501 1504 1507 1510 1512 1515 1517 1520 1522 1524 1526 1528 1529 1530 1531 1533 1534
1460 1462 1462 1462 1459 1457 1459 1455 1448 1443 1444 1446 1449 1451 1454 1457 1459 1461 1464 1465 1467 1469 1471 1473 1476 1479 1482 1485 1488 1491 1494 1497 1499 1502 1505 1508 1510 1513 1516 1518 1520 1522 1524 1526 1527 1528 1530 1531 1532
1457 1455 1458 1460 1465 1465 1459 1464 1444 1438 1439 1441 1444 1446 1449 1453 1456 1458 1461 1462 1464 1466 1468 1471 1474 1477 1480 1483 1486 1489 1491 1494 1497 1500 1503 1506 1509 1511 1514 1515 1518 1520 1522 1523 1525 1526 1528 1529 1530
1453 1453 1456 1458 1462 1464 1457 1459 1446 1434 1437 1437 1439 1441 1445 1448 1451 1454 1457 1459 1461 1464 1466 1469 1472 1475 1478 1481 1484 1486 1489 1492 1495 1498 1502 1504 1506 1509 1511 1514 1515 1517 1519 1521 1523 1524 1525 1527 1527
1451 1455 1456 1458 1462 1466 1453 1455 1445 1433 1430 1431 1434 1437 1441 1445 1448 1451 1455 1457 1459 1461 1464 1467 1469 1472 1475 1478 1481 1484 1487 1490 1493 1496 1499 1501 1504 1506 1509 1511 1513 1515 1517 1519 1520 1522 1523 1524 1525
1451 1458 1465 1466 1466 1457 1441 1444 1437 1422 1421 1423 1428 1432 1436 1441 1445 1448 1451 1454 1456 1458 1461 1464 1466 1469 1472 1475 1478 1482 1485 1488 1491 1494 1496 1498 1501 1503 1506 1508 1510 1512 1514 1516 1518 1519 1520 1521 1522
1446 1450 1457 1459 1455 1447 1437 1439 1429 1419 1419 1421 1424 1428 1433 1438 1441 1445 1448 1450 1453 1455 1457 1460 1463 1466 1469 1473 1476 1480 1483 1486 1489 1492 1494 1496 1499 1501 1503 1505 1507 1509 1510 1512 1514 1515 1516 1518 1519
1443 1446 1442 1448 1444 1444 1436 1426 1422 1419 1420 1421 1424 1427 1431 1435 1439 1442 1445 1448 1450 1453 1455 1458 1460 1464 1467 1471 1473 1477 1481 1484 1486 1489 1491 1494 1496 1498 1501 1503 1504 1506 1507 1509 1510 1512 1513 1514 1516
1439 1439 1446 1449 1448 1441 1429 1425 1425 1421 1422 1422 1424 1427 1430 1434 1437 1440 1443 1446 1448 1451 1453 1456 1459 1462 1465 1469 1472 1475 1479 1482 1484 1487 1489 1491 1493 1495 1497 1499 1501 1503 1504 1505 1507 1508 1510 1511 1512
1439 1440 1439 1441 1439 1439 1433 1427 1411 1413 1415 1419 1422 1425 1429 1433 1436 1439 1442 1444 1447 1449 1452 1454 1457 1460 1464 1467 1470 1474 1476 1479 1482 1484 1486 1488 1491 1492 1494 1496 1498 1499 1501 1502 1503 1504 1506 1507 1508
1431 1432 1436 1442 1438 1432 1432 1429 1413 1413 1414 1417 1422 1426 1429 1432 1435 1438 1441 1443 1445 1448 1450 1453 1456 1459 1462 1465 1468 1471 1474 1476 1479 1481 1483 1485 1488 1490 1491 1493 1494 1496 1497 1498 1500 1500 1502 1503 1503